Location: Meriden
(44.0740°N, 93.3870°W)
Time: 02:30:27
(UTC-05:00)

Amateur Radio Satellites - All Passes

Search period start: 24 October 2017 02:00
Search period end: 25 October 2017 02:00
Location: Meriden, 44.0740°N, 93.3870°W

Satellite Date Start Highest point End Downlink Frequencies (MHz)
Time Altitude Azimuth
ITUPSAT 1 24 Oct 02:17:34 02:20:13 15° 59° (ENE) 02:22:52 437.325
EO-79 24 Oct 02:20:57 02:24:15 22° 294° (WNW) 02:27:32 145.935-145.965
POLYITAN 1 24 Oct 02:27:03 02:30:08 20° 295° (WNW) 02:33:11 437.675
BEESAT 24 Oct 02:29:27 02:32:47 19° 62° (ENE) 02:36:08 436.000
DX 1 24 Oct 02:30:25 02:34:30 42° 261° (W) 02:38:39 434.975-435.025
RS-15 24 Oct 02:31:39 02:43:42 55° 317° (NW) 02:55:40 29.354- 29.394
MOZHAYETS 4 24 Oct 02:45:15 02:49:09 27° 67° (ENE) 02:53:03
BUGSAT 1 24 Oct 02:45:28 02:49:35 53° 287° (WNW) 02:53:38 437.445
UKube-1 24 Oct 02:45:44 02:49:51 45° 260° (W) 02:54:00 .
NANOSAT C BR1 24 Oct 02:47:16 02:49:31 14° 298° (WNW) 02:51:45 145.865
QB50P2 24 Oct 02:49:04 02:50:29 11° 300° (WNW) 02:51:54 145.880/145.840
Gurwin Techsat 1B 24 Oct 02:51:50 02:57:03 54° 100° (E) 03:02:15 435.225
DUCHIFAT 1 24 Oct 02:55:50 02:57:51 13° 299° (WNW) 02:59:50 145.980
CUBESAT XI-V 24 Oct 03:09:57 03:11:36 12° 59° (ENE) 03:13:15 437.345
M-CUBED/EXP-1 PRIME 24 Oct 03:10:28 03:14:07 66° 108° (ESE) 03:18:01 437.505
Oscar 19 24 Oct 03:27:16 03:32:15 53° 289° (WNW) 03:37:12 437.125/150
NO-84 24 Oct 03:28:11 03:32:26 59° 326° (NW) 03:36:39 435.350 FM
AO-7 24 Oct 03:52:36 03:59:48 31° 96° (E) 04:06:56 .
ITUPSAT 1 24 Oct 03:52:37 03:57:26 75° 256° (WSW) 04:02:16 437.325
BEESAT 24 Oct 04:05:27 04:10:09 55° 259° (W) 04:14:52 436.000
ITAMSAT 1 24 Oct 04:09:13 04:13:36 26° 94° (E) 04:17:57 435.822/435.867
MOZHAYETS 4 24 Oct 04:21:59 04:26:10 33° 264° (W) 04:30:23
Gurwin Techsat 1B 24 Oct 04:32:33 04:36:38 23° 298° (WNW) 04:40:41 435.225
CUBESAT XI-V 24 Oct 04:43:38 04:48:16 87° 257° (WSW) 04:52:54 437.345
O/OREOS (USA 219) 24 Oct 04:43:57 04:46:23 14° 48° (NE) 04:48:49 437.305
M-CUBED/EXP-1 PRIME 24 Oct 04:46:56 04:48:09 11° 302° (WNW) 04:49:22 437.505
RS-15 24 Oct 04:49:31 04:59:46 29° 348° (NNW) 05:09:47 29.354- 29.394
DOVE 4 24 Oct 04:54:38 04:55:46 11° 87° (E) 04:56:53 437.250
NO-84 24 Oct 05:07:11 05:10:32 22° 345° (NNW) 05:13:47 435.350 FM
KKS-1 24 Oct 05:18:05 05:22:29 66° 73° (ENE) 05:26:55 437.445
STARS 24 Oct 05:39:00 05:43:11 45° 70° (ENE) 05:47:24 437.465
AO-7 24 Oct 05:44:50 05:53:00 63° 295° (WNW) 06:01:10 .
ITAMSAT 1 24 Oct 05:48:16 05:53:11 42° 292° (WNW) 05:58:06 435.822/435.867
XW-2B 24 Oct 06:16:15 06:17:37 12° 90° (E) 06:18:57 145.730 - 145.750
O/OREOS (USA 219) 24 Oct 06:21:49 06:26:27 83° 247° (WSW) 06:31:01 437.305
SO-50 24 Oct 06:26:07 06:30:30 57° 121° (ESE) 06:34:56 436.795
DOVE 4 24 Oct 06:28:58 06:34:04 84° 104° (ESE) 06:39:20 437.250
XW-2C 24 Oct 06:38:24 06:41:22 22° 94° (E) 06:44:18 145.795 - 145.815
NO-84 24 Oct 06:46:08 06:49:06 18° 7° (N) 06:51:58 435.350 FM
CUTE-I 24 Oct 06:48:18 06:52:51 27° 94° (E) 06:57:23 437.470
KKS-1 24 Oct 06:57:30 06:59:29 13° 270° (W) 07:01:29 437.445
HO-68 24 Oct 06:58:25 07:02:47 17° 88° (E) 07:07:08 435.675
RS-15 24 Oct 07:06:24 07:17:07 34° 23° (NNE) 07:27:23 29.354- 29.394
KAITUO 1B 24 Oct 07:09:42 07:13:09 37° 98° (E) 07:16:34 145.475/437.950
NUDT-PHONESAT 24 Oct 07:16:35 07:20:05 42° 99° (E) 07:23:34 437.300
STRAND 1 24 Oct 07:16:39 07:21:32 46° 69° (ENE) 07:26:27 437.568
STARS 24 Oct 07:16:39 07:19:44 18° 267° (W) 07:22:49 437.465
XW-2F 24 Oct 07:18:49 07:22:32 63° 102° (ESE) 07:26:13 145.980 - 146.000
CUTE 1.7 + AOD 2 24 Oct 07:27:04 07:30:02 19° 92° (E) 07:33:00 437.475
SEEDS 24 Oct 07:27:13 07:28:25 11° 89° (E) 07:29:37 437.485
LilacSat-2 24 Oct 07:33:18 07:37:04 73° 286° (WNW) 07:40:49 437.200
XW-2D 24 Oct 07:34:45 07:38:29 73° 284° (WNW) 07:42:12 145.860 - 145.880
CUBEBUG 2 24 Oct 07:36:36 07:39:14 15° 89° (E) 07:41:49 437.445
AO-7 24 Oct 07:39:30 07:44:11 17° 316° (NW) 07:48:53 .
PCSat 24 Oct 07:44:44 07:49:52 46° 114° (ESE) 07:55:03 145.827
XW-2B 24 Oct 07:48:26 07:52:05 51° 287° (WNW) 07:55:43 145.730 - 145.750
UWE-3 24 Oct 08:05:19 08:08:11 17° 90° (E) 08:11:00 435.000/436.395/437.385
ISS 24 Oct 08:07:03 08:07:32 10° 130° (SE) 08:08:01 437.550
SO-50 24 Oct 08:07:46 08:11:18 22° 320° (NW) 08:14:52 436.795
DOVE 4 24 Oct 08:08:24 08:11:06 15° 299° (WNW) 08:13:52 437.250
YUBILEINY 24 Oct 08:08:48 08:14:38 20° 77° (ENE) 08:20:29 435.215
XW-2C 24 Oct 08:12:20 08:15:31 27° 291° (WNW) 08:18:41 145.795 - 145.815
NO-84 24 Oct 08:23:37 08:27:26 38° 28° (NNE) 08:30:58 435.350 FM
CUTE-I 24 Oct 08:27:58 08:33:01 42° 292° (WNW) 08:38:03 437.470
TIGRISAT 24 Oct 08:41:30 08:42:43 11° 58° (ENE) 08:43:56 435.000
AO-73 24 Oct 08:44:03 08:47:13 20° 92° (E) 08:50:19 145.935
HO-68 24 Oct 08:44:11 08:51:27 88° 106° (ESE) 08:58:40 435.675
KAITUO 1B 24 Oct 08:44:30 08:46:50 16° 294° (WNW) 08:49:10 145.475/437.950
FO-29 24 Oct 08:45:15 08:50:23 51° 69° (ENE) 08:56:02 435.910
NUDT-PHONESAT 24 Oct 08:51:36 08:53:35 14° 295° (WNW) 08:55:33 437.300
XW-2F 24 Oct 08:55:17 08:56:07 11° 298° (WNW) 08:56:56 145.980 - 146.000
nSIGHT-1 24 Oct 08:56:26 08:59:22 34° 140° (SE) 09:02:18 .
STRAND 1 24 Oct 08:56:52 09:00:55 23° 267° (W) 09:05:00 437.568
SEEDS 24 Oct 09:00:23 09:04:32 67° 285° (WNW) 09:08:41 437.485
CUTE 1.7 + AOD 2 24 Oct 09:02:05 09:06:02 40° 289° (WNW) 09:09:57 437.475
ZACube-1 24 Oct 09:08:11 09:12:17 40° 97° (E) 09:16:17 437.345
AAUSAT CUBESAT 2 24 Oct 09:10:48 09:14:56 70° 102° (ESE) 09:19:04 437.432
CUBEBUG 2 24 Oct 09:11:43 09:16:16 58° 287° (WNW) 09:20:38 437.445
XW-2A 24 Oct 09:15:15 09:18:34 66° 285° (WNW) 09:21:52 145.665 - 145.685
RS-15 24 Oct 09:19:47 09:31:52 78° 53° (NE) 09:43:14 29.354- 29.394
PCSat 24 Oct 09:28:39 09:33:26 31° 313° (NW) 09:38:15 145.827
Oscar 11 24 Oct 09:36:57 09:41:09 50° 99° (E) 09:45:19 .
ISS 24 Oct 09:40:14 09:43:28 77° 146° (SE) 09:46:44 437.550
UWE-3 24 Oct 09:40:37 09:44:57 48° 288° (WNW) 09:49:07 435.000/436.395/437.385
PRISM 24 Oct 09:45:34 09:48:29 19° 65° (ENE) 09:51:26 437.425
Max Valier Satellite 24 Oct 09:58:02 09:59:20 12° 90° (E) 10:00:37 145.860
DELFI C3 24 Oct 09:58:24 10:01:12 18° 93° (E) 10:03:59 145.870
UNISAT 6 24 Oct 10:00:26 10:05:04 66° 74° (ENE) 10:09:45 437.425
NO-84 24 Oct 10:01:13 10:04:48 36° 228° (SW) 10:08:07 435.350 FM
YUBILEINY 24 Oct 10:01:31 10:10:14 87° 280° (W) 10:19:02 435.215
TIGRISAT 24 Oct 10:13:54 10:18:35 83° 76° (ENE) 10:23:19 435.000
AO-73 24 Oct 10:19:35 10:23:36 38° 290° (WNW) 10:27:31 145.935
FO-29 24 Oct 10:31:51 10:35:56 22° 270° (W) 10:40:18 435.910
nSIGHT-1 24 Oct 10:32:36 10:35:37 38° 338° (NNW) 10:38:39 .
HO-68 24 Oct 10:33:13 10:38:17 21° 307° (NW) 10:43:19 435.675
ZACube-1 24 Oct 10:45:06 10:48:17 20° 295° (WNW) 10:51:24 437.345
AAUSAT CUBESAT 2 24 Oct 10:48:16 10:49:48 12° 299° (WNW) 10:51:21 437.432
EO-88 24 Oct 11:09:34 11:13:11 63° 101° (E) 11:16:46 145.990 - 145.960
Oscar 11 24 Oct 11:14:08 11:16:53 17° 296° (WNW) 11:19:38 .
BEESAT 3 24 Oct 11:14:37 11:18:11 32° 116° (ESE) 11:21:48 437.485
ISS 24 Oct 11:17:22 11:20:12 27° 345° (NNW) 11:23:04 437.550
PRISM 24 Oct 11:19:44 11:23:30 37° 262° (W) 11:27:19 437.425
Max Valier Satellite 24 Oct 11:29:53 11:33:27 49° 287° (WNW) 11:36:58 145.860
DELFI C3 24 Oct 11:32:24 11:36:04 36° 289° (WNW) 11:39:43 145.870
RS-15 24 Oct 11:33:22 11:43:05 32° 257° (WSW) 11:52:27 29.354- 29.394
EO-79 24 Oct 11:38:16 11:42:05 32° 69° (ENE) 11:45:55 145.935-145.965
UNISAT 6 24 Oct 11:39:45 11:42:13 14° 271° (W) 11:44:41 437.425
POLYITAN 1 24 Oct 11:44:09 11:48:06 37° 70° (ENE) 11:52:05 437.675
AIST 2D 24 Oct 11:44:32 11:48:01 78° 257° (WSW) 11:51:32 435.315
LO-87 24 Oct 11:45:02 11:47:51 21° 94° (E) 11:50:39 145.935 - 145.965
AO-85 24 Oct 11:50:03 11:52:01 13° 110° (ESE) 11:53:58 145.980
TIGRISAT 24 Oct 11:54:33 11:55:52 11° 273° (W) 11:57:10 435.000
YUBILEINY 24 Oct 12:02:25 12:08:26 20° 301° (WNW) 12:14:30 435.215
NANOSAT C BR1 24 Oct 12:03:01 12:07:10 53° 72° (ENE) 12:11:20 145.865
BUGSAT 1 24 Oct 12:03:03 12:05:09 14° 61° (ENE) 12:07:15 437.445
QB50P2 24 Oct 12:04:27 12:08:42 69° 74° (ENE) 12:12:58 145.880/145.840
nSIGHT-1 24 Oct 12:09:59 12:12:29 20° 358° (N) 12:14:59 .
DUCHIFAT 1 24 Oct 12:11:06 12:15:15 57° 73° (ENE) 12:19:27 145.980
ESTCUBE 1 24 Oct 12:19:31 12:23:44 38° 98° (E) 12:27:54 437.505/2401.250
Gurwin Techsat 1B 24 Oct 12:37:30 12:40:26 15° 58° (ENE) 12:43:22 435.225
BEESAT 2 24 Oct 12:45:39 12:49:39 89° 134° (SE) 12:53:45 435.950
EO-88 24 Oct 12:45:55 12:46:18 10° 298° (WNW) 12:46:39 145.990 - 145.960
BEESAT 3 24 Oct 12:52:15 12:55:44 28° 314° (NW) 12:59:16 437.485
ISS 24 Oct 12:54:46 12:57:23 22° 6° (N) 13:00:01 437.550
AO-7 24 Oct 13:06:35 13:10:00 13° 40° (NE) 13:13:25 .
Oscar 19 24 Oct 13:06:47 13:11:25 35° 67° (ENE) 13:16:04 437.125/150
EO-79 24 Oct 13:14:24 13:17:52 24° 266° (W) 13:21:21 145.935-145.965
SO-50 24 Oct 13:16:24 13:19:09 15° 34° (NE) 13:21:55 436.795
LO-87 24 Oct 13:18:10 13:21:14 26° 291° (WNW) 13:24:17 145.935 - 145.965
POLYITAN 1 24 Oct 13:20:44 13:24:00 21° 267° (W) 13:27:16 437.675
VELOX 1 24 Oct 13:25:23 13:29:24 32° 97° (E) 13:33:24 145.980
AO-85 24 Oct 13:28:03 13:31:52 56° 308° (NW) 13:35:50 145.980
BUGSAT 1 24 Oct 13:35:47 13:39:57 65° 259° (WSW) 13:44:12 437.445
NANOSAT C BR1 24 Oct 13:40:46 13:43:11 15° 269° (W) 13:45:36 145.865
SPROUT 24 Oct 13:40:56 13:45:14 72° 102° (ESE) 13:49:30 437.525
QB50P2 24 Oct 13:43:31 13:44:56 11° 271° (W) 13:46:22 145.880/145.840
nSIGHT-1 24 Oct 13:46:32 13:49:26 30° 18° (NNE) 13:52:19 .
DUCHIFAT 1 24 Oct 13:49:06 13:51:16 14° 270° (W) 13:53:27 145.980
ESTCUBE 1 24 Oct 13:56:48 14:00:18 23° 295° (WNW) 14:03:48 437.505/2401.250
M-CUBED/EXP-1 PRIME 24 Oct 13:58:06 14:01:24 71° 252° (WSW) 14:04:39 437.505
Gurwin Techsat 1B 24 Oct 14:14:21 14:19:40 85° 256° (WSW) 14:25:01 435.225
DX 1 24 Oct 14:16:58 14:20:46 28° 96° (E) 14:24:32 434.975-435.025
50 SAT 24 Oct 14:25:07 14:28:16 39° 99° (E) 14:31:22 437.505
BEESAT 2 24 Oct 14:25:42 14:27:59 14° 324° (NW) 14:30:17 435.950
ISS 24 Oct 14:31:12 14:34:24 49° 26° (NNE) 14:37:35 437.550
UKube-1 24 Oct 14:31:17 14:34:54 25° 95° (E) 14:38:28 .
Oscar 19 24 Oct 14:46:12 14:50:44 31° 264° (W) 14:55:18 437.125/150
PCSat 24 Oct 14:49:07 14:51:29 13° 31° (NNE) 14:53:50 145.827
AO-7 24 Oct 14:52:57 15:00:50 50° 62° (ENE) 15:08:43 .
SO-50 24 Oct 14:55:44 15:00:21 78° 54° (NE) 15:05:02 436.795
VELOX 1 24 Oct 15:02:01 15:05:43 26° 294° (WNW) 15:09:24 145.980
AO-85 24 Oct 15:12:40 15:13:13 10° 330° (NNW) 15:13:47 145.980
SPROUT 24 Oct 15:18:43 15:20:32 13° 299° (WNW) 15:22:21 437.525
nSIGHT-1 24 Oct 15:22:42 15:25:51 55° 216° (SW) 15:28:58 .
ITAMSAT 1 24 Oct 15:28:21 15:33:18 47° 69° (ENE) 15:38:18 435.822/435.867
ITUPSAT 1 24 Oct 15:52:05 15:56:01 25° 94° (E) 15:59:55 437.325
DX 1 24 Oct 15:53:06 15:56:54 29° 293° (WNW) 16:00:40 434.975-435.025
50 SAT 24 Oct 15:58:43 16:00:12 12° 295° (WNW) 16:01:40 437.505
Gurwin Techsat 1B 24 Oct 15:59:03 16:00:22 11° 273° (W) 16:01:43 435.225
DOVE 4 24 Oct 16:02:19 16:03:23 11° 58° (ENE) 16:04:28 437.250
BEESAT 24 Oct 16:04:05 16:08:24 33° 97° (E) 16:12:40 436.000
UKube-1 24 Oct 16:07:04 16:10:54 31° 292° (WNW) 16:14:44 .
ISS 24 Oct 16:07:57 16:10:42 25° 223° (SW) 16:13:27 437.550
MOZHAYETS 4 24 Oct 16:14:52 16:19:19 49° 99° (E) 16:23:43
PCSat 24 Oct 16:30:53 16:36:12 52° 54° (NE) 16:41:28 145.827
SO-50 24 Oct 16:37:57 16:40:13 13° 251° (WSW) 16:42:29 436.795
CUBESAT XI-V 24 Oct 16:39:17 16:42:44 21° 93° (E) 16:46:11 437.345
AO-7 24 Oct 16:46:04 16:53:43 40° 261° (W) 17:01:26 .
ITAMSAT 1 24 Oct 17:08:52 17:12:59 23° 267° (W) 17:17:08 435.822/435.867
KKS-1 24 Oct 17:09:51 17:11:10 11° 89° (E) 17:12:29 437.445
XW-2C 24 Oct 17:21:50 17:23:56 15° 64° (ENE) 17:26:03 145.795 - 145.815
ITUPSAT 1 24 Oct 17:29:30 17:33:56 38° 292° (WNW) 17:38:21 437.325
HO-68 24 Oct 17:29:58 17:34:17 17° 51° (NE) 17:38:35 435.675
DOVE 4 24 Oct 17:36:02 17:40:17 86° 257° (WSW) 17:44:48 437.250
BEESAT 24 Oct 17:41:57 17:46:05 29° 294° (WNW) 17:50:10 436.000
KAITUO 1B 24 Oct 17:51:11 17:54:05 22° 68° (ENE) 17:56:59 145.475/437.950
MOZHAYETS 4 24 Oct 17:52:54 17:56:06 19° 297° (WNW) 17:59:17
NUDT-PHONESAT 24 Oct 17:57:04 18:00:05 24° 69° (ENE) 18:03:07 437.300
XW-2F 24 Oct 18:00:45 18:04:12 36° 71° (ENE) 18:07:40 145.980 - 146.000
CUTE-I 24 Oct 18:11:20 18:16:27 51° 70° (ENE) 18:21:38 437.470
PCSat 24 Oct 18:14:54 18:19:15 25° 252° (WSW) 18:23:34 145.827
CUBESAT XI-V 24 Oct 18:15:56 18:20:17 43° 289° (WNW) 18:24:37 437.345
LilacSat-2 24 Oct 18:16:01 18:19:47 65° 75° (ENE) 18:23:34 437.200
XW-2D 24 Oct 18:16:46 18:20:30 63° 75° (ENE) 18:24:15 145.860 - 145.880
YUBILEINY 24 Oct 18:17:07 18:19:06 11° 49° (NE) 18:21:04 435.215
CUTE 1.7 + AOD 2 24 Oct 18:21:28 18:24:11 17° 64° (ENE) 18:26:54 437.475
SEEDS 24 Oct 18:21:30 18:22:00 10° 60° (ENE) 18:22:30 437.485
XW-2B 24 Oct 18:30:21 18:34:08 89° 76° (ENE) 18:37:56 145.730 - 145.750
CUBEBUG 2 24 Oct 18:35:47 18:38:48 17° 62° (ENE) 18:41:51 437.445
KKS-1 24 Oct 18:43:44 18:48:14 76° 286° (WNW) 18:52:43 437.445
XW-2C 24 Oct 18:54:06 18:57:45 45° 261° (W) 19:01:24 145.795 - 145.815
STARS 24 Oct 19:02:37 19:07:04 71° 103° (ESE) 19:11:28 437.465
UWE-3 24 Oct 19:03:22 19:06:34 19° 63° (ENE) 19:09:46 435.000/436.395/437.385
HO-68 24 Oct 19:13:43 19:20:51 76° 71° (ENE) 19:28:04 435.675
KAITUO 1B 24 Oct 19:24:46 19:27:57 26° 265° (W) 19:31:08 145.475/437.950
BEESAT 2 24 Oct 19:25:27 19:27:31 13° 36° (NE) 19:29:34 435.950
STRAND 1 24 Oct 19:27:10 19:29:46 14° 89° (E) 19:32:22 437.568
BEESAT 3 24 Oct 19:29:35 19:33:12 32° 47° (NE) 19:36:45 437.485
NUDT-PHONESAT 24 Oct 19:30:51 19:33:52 23° 265° (W) 19:36:54 437.300
XW-2F 24 Oct 19:35:59 19:38:27 16° 268° (W) 19:40:54 145.980 - 146.000
AO-73 24 Oct 19:40:36 19:43:59 21° 65° (ENE) 19:47:21 145.935
XW-2A 24 Oct 19:47:13 19:50:28 45° 73° (ENE) 19:53:44 145.665 - 145.685
CUTE-I 24 Oct 19:52:41 19:56:47 22° 267° (W) 20:00:54 437.470
SEEDS 24 Oct 19:52:51 19:57:01 84° 259° (WSW) 20:01:12 437.485
CUTE 1.7 + AOD 2 24 Oct 19:55:34 19:59:39 48° 261° (W) 20:03:44 437.475
AAUSAT CUBESAT 2 24 Oct 20:01:50 20:05:50 53° 73° (ENE) 20:09:50 437.432
ZACube-1 24 Oct 20:04:41 20:08:56 39° 70° (ENE) 20:13:11 437.345
YUBILEINY 24 Oct 20:09:53 20:18:27 52° 74° (ENE) 20:26:59 435.215
CUBEBUG 2 24 Oct 20:10:14 20:14:54 62° 260° (W) 20:19:39 437.445
AO-85 24 Oct 20:16:57 20:20:45 26° 44° (NE) 20:24:47 145.980
Oscar 11 24 Oct 20:32:46 20:36:54 45° 72° (ENE) 20:41:02 .
O/OREOS (USA 219) 24 Oct 20:35:12 20:39:47 88° 117° (ESE) 20:44:25 437.305
UWE-3 24 Oct 20:38:02 20:42:36 54° 261° (W) 20:47:12 435.000/436.395/437.385
STARS 24 Oct 20:40:37 20:42:49 14° 300° (WNW) 20:45:00 437.465
DELFI C3 24 Oct 20:45:56 20:47:52 13° 63° (ENE) 20:49:48 145.870
BEESAT 2 24 Oct 21:01:50 21:05:55 83° 57° (ENE) 21:09:54 435.950
HO-68 24 Oct 21:04:03 21:09:16 21° 269° (W) 21:14:33 435.675
STRAND 1 24 Oct 21:04:21 21:09:32 77° 286° (WNW) 21:14:39 437.568
BEESAT 3 24 Oct 21:07:18 21:10:37 26° 246° (WSW) 21:13:54 437.485
AO-73 24 Oct 21:15:32 21:19:54 44° 262° (W) 21:24:16 145.935
XW-2A 24 Oct 21:22:37 21:23:25 11° 269° (W) 21:24:14 145.665 - 145.685
FO-29 24 Oct 21:35:40 21:42:33 48° 98° (E) 21:49:57 435.910
AAUSAT CUBESAT 2 24 Oct 21:39:33 21:41:36 13° 270° (W) 21:43:39 437.432
ZACube-1 24 Oct 21:41:43 21:45:18 23° 267° (W) 21:48:55 437.345
EO-88 24 Oct 21:48:22 21:51:39 32° 71° (ENE) 21:54:56 145.990 - 145.960
UNISAT 6 24 Oct 21:52:39 21:54:37 13° 88° (E) 21:56:35 437.425
AO-85 24 Oct 21:56:56 22:01:21 48° 241° (WSW) 22:06:05 145.980
TIGRISAT 24 Oct 22:05:21 22:08:08 16° 90° (E) 22:10:52 435.000
YUBILEINY 24 Oct 22:07:08 22:14:58 38° 275° (W) 22:22:49 435.215
Max Valier Satellite 24 Oct 22:09:17 22:13:01 85° 77° (ENE) 22:16:46 145.860
Oscar 11 24 Oct 22:10:22 22:13:15 17° 268° (W) 22:16:10 .
O/OREOS (USA 219) 24 Oct 22:17:40 22:19:53 13° 312° (NW) 22:22:07 437.305
DELFI C3 24 Oct 22:18:21 22:22:10 53° 260° (W) 22:26:01 145.870
LO-87 24 Oct 22:23:41 22:25:05 12° 63° (ENE) 22:26:29 145.935 - 145.965
STRAND 1 24 Oct 22:46:08 22:47:49 12° 304° (NW) 22:49:29 437.568
PRISM 24 Oct 22:59:22 23:02:46 24° 95° (E) 23:06:11 437.425
ESTCUBE 1 24 Oct 23:20:11 23:24:23 42° 71° (ENE) 23:28:37 437.505/2401.250
FO-29 24 Oct 23:21:00 23:27:25 39° 294° (WNW) 23:34:22 435.910
EO-88 24 Oct 23:22:55 23:25:22 17° 267° (W) 23:27:50 145.990 - 145.960
UNISAT 6 24 Oct 23:27:16 23:31:51 68° 286° (WNW) 23:36:16 437.425
TIGRISAT 24 Oct 23:40:42 23:45:11 54° 288° (WNW) 23:49:31 435.000
RS-15 24 Oct 23:44:06 23:55:17 44° 108° (ESE) 00:06:28 29.354- 29.394
LO-87 24 Oct 23:54:31 23:58:02 52° 261° (W) 00:01:36 145.935 - 145.965
VELOX 1 25 Oct 00:23:48 00:27:46 34° 68° (ENE) 00:31:46 145.980
PRISM 25 Oct 00:34:25 00:38:03 30° 292° (WNW) 00:41:40 437.425
SPROUT 25 Oct 00:35:04 00:39:19 64° 74° (ENE) 00:43:35 437.525
AIST 2D 25 Oct 00:40:50 00:44:18 78° 285° (WNW) 00:47:46 435.315
50 SAT 25 Oct 00:55:33 00:57:41 17° 67° (ENE) 00:59:51 437.505
EO-79 25 Oct 00:56:28 01:00:36 48° 99° (E) 01:04:41 145.935-145.965
ESTCUBE 1 25 Oct 00:58:03 01:01:21 20° 267° (W) 01:04:42 437.505/2401.250
POLYITAN 1 25 Oct 01:02:40 01:06:52 56° 100° (E) 01:11:01 437.675
DX 1 25 Oct 01:13:45 01:17:31 30° 67° (ENE) 01:21:19 434.975-435.025
BUGSAT 1 25 Oct 01:17:03 01:19:43 16° 91° (E) 01:22:22 437.445
NO-84 25 Oct 01:17:10 01:20:15 20° 127° (SE) 01:23:23 435.350 FM
NANOSAT C BR1 25 Oct 01:21:07 01:25:23 81° 105° (ESE) 01:29:36 145.865
QB50P2 25 Oct 01:23:20 01:27:37 77° 285° (WNW) 01:31:50 145.880/145.840
UKube-1 25 Oct 01:27:01 01:30:36 26° 66° (ENE) 01:34:12 .
DUCHIFAT 1 25 Oct 01:28:52 01:33:08 86° 107° (ESE) 01:37:19 145.980
